GW2011 Weather Reports


Display with metric or nautical units.
time (UTC)temp
F
wind
direction
speed
MPH
gust
MPH
rain 1hr
in
rain 24hr
in
rain mn
in
humidity
%
barometer
mb
20260905045019 68 55 1.0 4.0 0.00 0.00 0.00 88 1013.1
20260905044543 68 104 1.0 3.0 0.00 0.00 0.00 87 1013.0
20260905044018 68 127 1.0 3.0 0.00 0.00 0.00 87 1013.2
20260905043520 68 49 1.0 3.0 0.00 0.00 0.00 86 1013.1
20260905043051 68 71 1.0 3.0 0.00 0.00 0.00 87 1012.8
20260905042519 69 61 1.0 3.0 0.00 0.00 0.00 86 1013.1
20260905042018 69 39 1.0 4.0 0.00 0.00 0.00 86 1013.0
20260905041537 69 40 1.0 4.0 0.00 0.00 0.00 85 1012.8
20260905041019 70 44 1.0 3.0 0.00 0.00 0.00 85 1012.9
20260905040519 70 60 1.0 3.0 0.00 0.00 0.00 85 1013.1
20260905040037 71 73 1.0 3.0 0.00 0.00 0.00 86 1012.9
20260905035518 71 63 1.0 4.0 0.00 0.00 0.00 85 1012.7
20260905035020 71 69 2.0 4.0 0.00 0.00 0.00 85 1012.8
20260905034537 71 82 2.0 4.0 0.00 0.00 0.00 84 1012.7
20260905034020 72 74 1.0 4.0 0.00 0.00 0.00 84 1012.8
20260905033519 72 56 1.0 4.0 0.00 0.00 0.00 84 1012.8
20260905033037 72 55 2.0 4.0 0.00 0.00 0.00 83 1012.7
20260905032520 73 41 1.0 4.0 0.00 0.00 0.00 83 1012.6
20260905032023 73 53 1.0 5.0 0.00 0.00 0.00 84 1012.4
20260905031542 74 44 2.0 5.0 0.00 0.00 0.00 83 1012.3
20260905031016 74 55 1.0 3.0 0.00 0.00 0.00 84 1012.1
20260905030520 74 53 1.0 4.0 0.00 0.00 0.00 83 1012.0
20260905030037 75 113 1.0 4.0 0.00 0.00 0.00 82 1011.9
20260905025517 75 0 1.0 3.0 0.00 0.00 0.00 82 1011.7
20260905025020 75 0 1.0 3.0 0.00 0.00 0.00 82 1011.6
20260905024537 75 30 1.0 3.0 0.00 0.00 0.00 82 1011.6
20260905024020 75 41 1.0 3.0 0.00 0.00 0.00 82 1011.6
20260905023520 75 69 1.0 4.0 0.00 0.00 0.00 82 1011.5
20260905023037 75 31 0.0 4.0 0.00 0.00 0.00 82 1011.6
20260905022518 75 0 0.0 2.0 0.00 0.00 0.00 82 1011.5
20260905022018 76 0 0.0 2.0 0.00 0.00 0.00 82 1011.3
20260905021537 75 88 0.0 2.0 0.00 0.00 0.00 82 1011.5
20260905021021 76 0 0.0 2.0 0.00 0.00 0.00 82 1011.4
20260905020518 76 95 0.0 2.0 0.00 0.00 0.00 81 1011.4
20260905020047 76 95 0.0 1.0 0.00 0.00 0.00 81 1011.3
20260905015517 76 97 0.0 1.0 0.00 0.00 0.00 81 1011.5
20260905015023 76 0 0.0 1.0 0.00 0.00 0.00 81 1011.3
20260905014537 76 0 0.0 1.0 0.00 0.00 0.00 80 1011.3
20260905014020 76 0 0.0 0.0 0.00 0.00 0.00 80 1011.3
20260905013522 76 0 0.0 0.0 0.00 0.00 0.00 81 1011.2
20260905013046 76 0 0.0 0.0 0.00 0.00 0.00 80 1011.2
20260905012518 76 0 0.0 1.0 0.00 0.00 0.00 80 1011.2
20260905012019 76 0 0.0 1.0 0.00 0.00 0.00 80 1010.9
20260905011617 77 0 0.0 1.0 0.00 0.00 0.00 80 1011.0
20260905011020 77 0 0.0 1.0 0.00 0.00 0.00 79 1011.0
20260905010520 77 0 0.0 0.0 0.00 0.00 0.00 79 1010.9
20260905010039 77 0 0.0 0.0 0.00 0.00 0.00 78 1011.0
20260905005517 78 0 0.0 1.0 0.00 0.00 0.00 78 1011.2
20260905005016 78 0 0.0 1.0 0.00 0.00 0.00 77 1011.0
20260905004539 78 0 0.0 1.0 0.00 0.00 0.00 77 1011.0
20260905004018 78 0 0.0 1.0 0.00 0.00 0.00 76 1010.9
20260905003521 78 0 0.0 0.0 0.00 0.00 0.00 76 1010.9
20260905003039 79 0 0.0 0.0 0.00 0.00 0.00 75 1010.7
20260905002520 79 0 0.0 0.0 0.00 0.00 0.00 75 1010.9
20260905002018 80 0 0.0 0.0 0.00 0.00 0.00 74 1010.7
20260905001549 80 0 0.0 0.0 0.00 0.00 0.00 73 1010.6
20260905001019 81 0 0.0 1.0 0.00 0.00 0.00 73 1010.8
20260905000520 81 0 0.0 1.0 0.00 0.00 0.00 74 1010.7
20260905000037 81 0 0.0 1.0 0.00 0.00 0.00 72 1010.7
20260904235517 81 0 0.0 1.0 0.00 0.00 0.00 72 1010.8
20260904235025 81 97 0.0 1.0 0.00 0.00 0.00 71 1010.8
20260904234541 81 97 0.0 1.0 0.00 0.00 0.00 71 1010.7
20260904234020 81 0 0.0 1.0 0.00 0.00 0.00 70 1010.7
20260904233520 81 0 0.0 1.0 0.00 0.00 0.00 70 1010.7
20260904233041 81 0 0.0 1.0 0.00 0.00 0.00 70 1010.8
20260904232520 81 0 0.0 1.0 0.00 0.00 0.00 71 1010.7
20260904232018 81 0 0.0 1.0 0.00 0.00 0.00 70 1010.6
20260904231539 82 0 0.0 1.0 0.00 0.00 0.00 70 1010.7
20260904231018 82 0 0.0 1.0 0.00 0.00 0.00 70 1010.6
20260904230518 82 0 0.0 2.0 0.00 0.00 0.00 69 1010.5
20260904230038 82 0 0.0 2.0 0.00 0.00 0.00 70 1010.6
20260904225522 82 0 0.0 2.0 0.00 0.00 0.00 70 1010.6
20260904225020 82 100 0.0 1.0 0.00 0.00 0.00 70 1010.7
20260904224543 82 0 0.0 1.0 0.00 0.00 0.00 70 1010.6
20260904224018 82 0 0.0 2.0 0.00 0.00 0.00 70 1010.5
20260904223524 82 0 0.0 2.0 0.00 0.00 0.00 71 1010.4
20260904223042 82 0 0.0 1.0 0.00 0.00 0.00 71 1010.3
20260904222523 82 0 0.0 2.0 0.00 0.00 0.00 70 1010.5
20260904222020 82 74 0.0 2.0 0.00 0.00 0.00 70 1010.4
20260904221541 82 0 0.0 2.0 0.00 0.00 0.00 70 1010.3
20260904221020 82 0 0.0 2.0 0.00 0.00 0.00 71 1010.4
20260904220519 82 97 0.0 2.0 0.00 0.00 0.00 71 1010.3
20260904220044 82 97 0.0 2.0 0.00 0.00 0.00 70 1010.4
20260904215518 82 98 0.0 2.0 0.00 0.00 0.00 74 1010.5
20260904215019 82 98 0.0 2.0 0.00 0.00 0.00 72 1010.3
20260904214540 82 0 1.0 2.0 0.00 0.00 0.00 73 1010.4
20260904214024 82 115 0.0 2.0 0.00 0.00 0.00 75 1010.4
20260904213521 82 0 0.0 2.0 0.00 0.00 0.00 73 1010.4
20260904213043 82 122 0.0 2.0 0.00 0.00 0.00 74 1010.4
20260904212519 83 0 0.0 2.0 0.00 0.00 0.00 75 1010.3
20260904212023 83 0 1.0 2.0 0.00 0.00 0.00 73 1010.3
20260904211542 82 0 0.0 3.0 0.00 0.00 0.00 75 1010.2
20260904211021 82 0 0.0 3.0 0.00 0.00 0.00 74 1010.3
20260904210520 82 101 1.0 3.0 0.00 0.00 0.00 74 1010.2
20260904210038 82 98 1.0 3.0 0.00 0.00 0.00 73 1010.1
20260904205522 82 121 1.0 3.0 0.00 0.00 0.00 74 1010.2
20260904205017 82 119 1.0 3.0 0.00 0.00 0.00 73 1010.3
20260904204541 82 0 0.0 3.0 0.00 0.00 0.00 73 1010.3
20260904204017 82 0 1.0 3.0 0.00 0.00 0.00 74 1010.3
20260904203524 82 96 0.0 3.0 0.00 0.00 0.00 74 1010.1
20260904203037 82 0 1.0 3.0 0.00 0.00 0.00 75 1010.3
20260904202518 82 109 0.0 2.0 0.00 0.00 0.00 74 1010.4
20260904202017 82 79 1.0 3.0 0.00 0.00 0.00 76 1010.2
20260904201541 81 82 1.0 3.0 0.00 0.00 0.00 76 1010.3
20260904201017 81 65 1.0 3.0 0.00 0.00 0.00 74 1010.3
20260904200519 81 86 1.0 3.0 0.00 0.00 0.00 75 1010.3
20260904200039 81 69 1.0 3.0 0.00 0.00 0.00 76 1010.3
20260904195521 81 59 1.0 2.0 0.00 0.00 0.00 77 1010.3
20260904195019 81 77 1.0 2.0 0.00 0.00 0.00 76 1010.2
20260904194547 81 34 1.0 3.0 0.00 0.00 0.00 76 1010.3
20260904194017 80 73 1.0 3.0 0.00 0.00 0.00 78 1010.3
20260904193525 80 108 1.0 3.0 0.00 0.00 0.00 78 1010.3
20260904193043 80 88 1.0 3.0 0.00 0.00 0.00 76 1010.4
20260904192517 80 96 1.0 3.0 0.00 0.00 0.00 77 1010.5
20260904192020 80 101 1.0 3.0 0.00 0.00 0.00 79 1010.5
20260904191538 80 0 1.0 3.0 0.00 0.00 0.00 78 1010.6
20260904191020 79 101 1.0 3.0 0.00 0.00 0.00 78 1010.6
20260904190520 79 0 1.0 3.0 0.00 0.00 0.00 79 1010.6
20260904190039 79 107 1.0 3.0 0.00 0.00 0.00 79 1010.6
20260904185519 79 0 0.0 3.0 0.00 0.00 0.00 78 1010.7
20260904185021 79 82 1.0 6.0 0.00 0.00 0.00 80 1010.7
20260904184539 78 95 1.0 6.0 0.00 0.00 0.00 81 1010.7
20260904184020 78 70 1.0 3.0 0.00 0.00 0.00 81 1010.7
20260904183521 78 69 0.0 3.0 0.00 0.00 0.00 81 1010.8
20260904183102 78 71 1.0 3.0 0.00 0.00 0.00 81 1010.9
20260904182520 78 63 0.0 3.0 0.00 0.00 0.00 80 1010.7
20260904182025 78 79 1.0 3.0 0.00 0.00 0.00 82 1010.6
20260904181555 77 69 1.0 3.0 0.00 0.00 0.00 82 1010.7
20260904181020 77 80 1.0 3.0 0.00 0.00 0.00 84 1010.6
20260904180522 76 92 1.0 3.0 0.00 0.00 0.00 83 1010.6
20260904180043 76 92 1.0 3.0 0.00 0.00 0.00 85 1010.6
20260904175520 76 55 1.0 3.0 0.00 0.00 0.00 85 1010.6
20260904175018 75 61 1.0 3.0 0.00 0.00 0.00 86 1010.8
20260904174540 75 80 0.0 3.0 0.00 0.00 0.00 86 1010.7
20260904174019 75 0 0.0 3.0 0.00 0.00 0.00 87 1010.9
20260904173520 74 94 0.0 2.0 0.00 0.00 0.00 87 1010.8
20260904173038 74 93 1.0 2.0 0.00 0.00 0.00 88 1010.7
20260904172520 74 0 0.0 2.0 0.00 0.00 0.00 88 1010.7
20260904172020 74 0 0.0 3.0 0.00 0.00 0.00 88 1010.7
20260904171540 73 0 0.0 3.0 0.00 0.00 0.00 88 1010.6
20260904171016 73 0 0.0 2.0 0.00 0.00 0.00 89 1010.6
20260904170521 73 0 0.0 2.0 0.00 0.00 0.00 89 1010.7
20260904170035 73 135 0.0 2.0 0.00 0.00 0.00 89 1010.7
20260904165522 73 148 0.0 3.0 0.00 0.00 0.00 90 1010.8
20260904165019 73 0 1.0 3.0 0.00 0.00 0.00 90 1010.7
20260904164545 72 0 0.0 0.0 0.00 0.00 0.00 90 1010.4
20260904164018 72 0 0.0 1.0 0.00 0.00 0.00 91 1010.5
20260904163517 72 0 0.0 2.0 0.00 0.00 0.00 92 1010.3
20260904163037 72 0 0.0 2.0 0.00 0.00 0.00 92 1010.4
20260904162520 71 0 0.0 2.0 0.00 0.00 0.00 93 1010.4
20260904162020 71 0 0.0 2.0 0.00 0.00 0.00 93 1010.4
20260904161538 71 61 0.0 2.0 0.00 0.00 0.00 93 1010.4
20260904161019 71 0 0.0 2.0 0.00 0.00 0.00 94 1010.4
20260904160519 71 0 0.0 2.0 0.00 0.00 0.00 94 1010.2
20260904160040 71 0 0.0 2.0 0.00 0.00 0.00 95 1010.2
20260904155521 70 61 0.0 2.0 0.00 0.00 0.00 95 1010.0
20260904155017 70 61 0.0 2.0 0.00 0.00 0.00 96 1010.1
20260904154547 69 0 0.0 1.0 0.00 0.00 0.00 96 1009.9
20260904154023 69 48 0.0 2.0 0.00 0.00 0.00 95 1009.9
20260904153520 69 48 0.0 2.0 0.00 0.00 0.00 96 1009.9
20260904153038 69 0 0.0 2.0 0.00 0.00 0.00 96 1009.8
20260904152518 69 0 0.0 2.0 0.00 0.00 0.00 96 1009.9
20260904152019 68 0 0.0 2.0 0.00 0.00 0.00 96 1009.8
20260904151538 68 0 0.0 0.0 0.00 0.00 0.00 96 1009.7
20260904151017 68 0 0.0 0.0 0.00 0.00 0.00 96 1009.8
20260904150518 68 0 0.0 0.0 0.00 0.00 0.00 96 1009.7
20260904150035 68 0 0.0 0.0 0.00 0.00 0.00 96 1009.5
20260904145520 68 0 0.0 0.0 0.00 0.00 0.00 96 1009.5
20260904145020 68 0 0.0 0.0 0.00 0.00 0.00 96 1009.5
20260904144539 67 0 0.0 0.0 0.00 0.00 0.00 96 1009.5
20260904144022 67 0 0.0 0.0 0.00 0.00 0.00 95 1009.5
20260904143520 67 0 0.0 0.0 0.00 0.00 0.00 96 1009.5
20260904143038 67 0 0.0 0.0 0.00 0.00 0.00 96 1009.4
20260904142520 67 0 0.0 0.0 0.00 0.00 0.00 95 1009.2
20260904142023 67 0 0.0 0.0 0.00 0.00 0.00 95 1009.3
20260904141542 67 0 0.0 0.0 0.00 0.00 0.00 95 1009.2
20260904141017 68 0 0.0 0.0 0.00 0.00 0.00 95 1009.3
20260904140519 68 0 0.0 0.0 0.00 0.00 0.00 95 1009.1
20260904140045 68 0 0.0 0.0 0.00 0.00 0.00 95 1009.1
20260904135518 68 0 0.0 0.0 0.00 0.00 0.00 95 1008.9
20260904135020 68 0 0.0 0.0 0.00 0.00 0.00 95 1009.0
20260904134546 68 0 0.0 0.0 0.00 0.00 0.00 95 1008.9
20260904134017 68 0 0.0 0.0 0.00 0.00 0.00 95 1008.8
20260904133522 68 0 0.0 0.0 0.00 0.00 0.00 95 1008.8
20260904133042 68 0 0.0 0.0 0.00 0.00 0.00 95 1008.8
20260904132520 68 0 0.0 0.0 0.00 0.00 0.00 95 1008.6
20260904132018 68 0 0.0 0.0 0.00 0.00 0.00 95 1008.5
20260904131541 68 0 0.0 0.0 0.00 0.00 0.00 95 1008.6
20260904131017 68 0 0.0 0.0 0.00 0.00 0.00 95 1008.7
20260904130519 68 0 0.0 0.0 0.00 0.00 0.00 95 1008.4
20260904130038 68 0 0.0 0.0 0.00 0.00 0.00 95 1008.4
20260904125518 68 0 0.0 0.0 0.00 0.00 0.00 95 1008.4
20260904125019 68 0 0.0 0.0 0.00 0.00 0.00 95 1008.4
20260904124538 68 0 0.0 0.0 0.00 0.00 0.00 95 1008.5
20260904124020 68 0 0.0 0.0 0.00 0.00 0.00 95 1008.3
20260904123519 68 0 0.0 0.0 0.00 0.00 0.00 95 1008.3
20260904123037 68 0 0.0 0.0 0.00 0.00 0.00 94 1008.2
20260904122523 68 0 0.0 0.0 0.00 0.00 0.00 94 1008.2
20260904122020 68 0 0.0 0.0 0.00 0.00 0.00 94 1008.0
20260904121541 68 0 0.0 0.0 0.00 0.00 0.00 94 1008.0
20260904121019 68 0 0.0 0.0 0.00 0.00 0.00 94 1008.0
20260904120521 68 0 0.0 0.0 0.00 0.00 0.00 94 1007.9
20260904120046 68 0 0.0 0.0 0.00 0.00 0.00 94 1008.0
20260904115521 69 0 0.0 0.0 0.00 0.00 0.00 94 1007.9
20260904115022 69 0 0.0 0.0 0.00 0.00 0.00 94 1007.7
20260904114540 69 0 0.0 0.0 0.00 0.00 0.00 94 1007.7
20260904114020 69 0 0.0 0.0 0.00 0.00 0.00 94 1007.6
20260904113520 69 0 0.0 0.0 0.00 0.00 0.00 94 1007.5
20260904113043 69 0 0.0 0.0 0.00 0.00 0.00 94 1007.6
20260904112519 69 0 0.0 2.0 0.00 0.00 0.00 94 1007.4
20260904112019 70 0 0.0 2.0 0.00 0.00 0.00 94 1007.6
20260904111541 70 0 0.0 2.0 0.00 0.00 0.00 93 1007.5
20260904111017 70 0 0.0 1.0 0.00 0.00 0.00 94 1007.6
20260904110520 71 0 0.0 1.0 0.00 0.00 0.00 94 1007.6
20260904110039 71 0 0.0 2.0 0.00 0.00 0.00 95 1007.4
20260904105520 71 0 0.0 2.0 0.00 0.00 0.00 94 1007.5
20260904105022 71 0 0.0 2.0 0.00 0.00 0.00 94 1007.3
20260904104549 71 108 0.0 2.0 0.00 0.00 0.00 94 1007.3
20260904104023 71 91 0.0 2.0 0.00 0.00 0.00 94 1007.3
20260904103519 71 0 0.0 2.0 0.00 0.00 0.00 94 1007.2
20260904103037 71 0 0.0 2.0 0.00 0.00 0.00 94 1007.2
20260904102518 71 93 0.0 2.0 0.00 0.00 0.00 94 1007.2
20260904102017 71 93 0.0 1.0 0.00 0.00 0.00 94 1007.0
20260904101540 71 0 0.0 1.0 0.00 0.00 0.00 94 1007.3
20260904101017 71 0 0.0 1.0 0.00 0.00 0.00 94 1007.0
20260904100517 71 93 0.0 1.0 0.00 0.00 0.00 94 1007.0
20260904100039 71 0 0.0 2.0 0.00 0.00 0.00 94 1007.0
20260904095523 71 0 0.0 2.0 0.00 0.00 0.00 94 1007.3
20260904095019 71 93 0.0 2.0 0.00 0.00 0.00 94 1007.1
20260904094539 71 0 0.0 1.0 0.00 0.00 0.00 94 1007.1
20260904094020 71 0 0.0 1.0 0.00 0.00 0.00 94 1007.0
20260904093518 72 0 0.0 1.0 0.00 0.00 0.00 94 1007.1
20260904093045 72 0 0.0 1.0 0.00 0.00 0.00 94 1007.0
20260904092519 72 0 0.0 1.0 0.00 0.00 0.00 94 1007.0
20260904092020 72 0 0.0 2.0 0.00 0.00 0.00 94 1006.9
20260904091537 72 90 0.0 2.0 0.00 0.00 0.00 94 1007.0
20260904091022 72 92 0.0 1.0 0.00 0.00 0.00 94 1006.5
20260904090520 72 0 0.0 1.0 0.00 0.00 0.00 94 1006.9
20260904090036 72 0 0.0 2.0 0.00 0.00 0.00 94 1006.8
20260904085518 71 0 0.0 3.0 0.00 0.00 0.00 95 1006.6
20260904085020 71 92 0.0 3.0 0.00 0.00 0.00 94 1006.4
20260904084544 71 29 0.0 2.0 0.00 0.00 0.00 93 1006.5
20260904084018 71 0 0.0 0.0 0.00 0.00 0.00 94 1006.0
20260904083519 71 0 0.0 0.0 0.00 0.00 0.00 94 1006.1
20260904083039 71 0 0.0 0.0 0.00 0.00 0.00 93 1006.0
20260904082518 71 0 0.0 0.0 0.00 0.00 0.00 93 1005.9
20260904082021 71 0 0.0 0.0 0.00 0.00 0.00 93 1005.8
20260904081539 71 0 0.0 0.0 0.00 0.00 0.00 93 1005.7
20260904081018 71 0 0.0 1.0 0.00 0.00 0.00 93 1005.7
20260904080520 72 0 0.0 1.0 0.00 0.00 0.00 93 1005.7
20260904080038 72 0 0.0 1.0 0.00 0.00 0.00 93 1005.8
20260904075518 72 0 0.0 0.0 0.00 0.00 0.00 93 1005.7
20260904075017 72 0 0.0 0.0 0.00 0.00 0.00 93 1005.9
20260904074544 72 0 0.0 0.0 0.00 0.00 0.00 93 1005.9
20260904074019 72 0 0.0 0.0 0.00 0.00 0.00 93 1005.8
20260904073518 72 0 0.0 0.0 0.00 0.00 0.00 93 1006.1
20260904073037 72 0 0.0 0.0 0.00 0.00 0.00 93 1005.8
20260904072517 72 0 0.0 0.0 0.00 0.00 0.00 93 1005.9
20260904072020 72 0 0.0 0.0 0.00 0.00 0.00 93 1005.8
20260904071544 72 0 0.0 0.0 0.00 0.00 0.00 92 1005.8
20260904071020 72 0 0.0 0.0 0.00 0.00 0.00 92 1005.9
20260904070520 72 0 0.0 0.0 0.00 0.00 0.00 92 1005.9
20260904070041 72 0 0.0 0.0 0.00 0.00 0.00 92 1006.0
20260904065517 72 0 0.0 0.0 0.00 0.00 0.00 93 1006.0
20260904065017 72 0 0.0 0.0 0.00 0.00 0.00 92 1006.0
20260904064538 72 0 0.0 0.0 0.00 0.00 0.00 92 1006.0
20260904064021 72 0 0.0 0.0 0.00 0.00 0.00 92 1006.0
20260904063521 72 0 0.0 0.0 0.00 0.00 0.00 92 1006.0
20260904063038 73 0 0.0 0.0 0.00 0.00 0.00 92 1005.9
20260904062519 73 0 0.0 0.0 0.00 0.00 0.00 91 1005.8
20260904062019 73 0 0.0 0.0 0.00 0.00 0.00 91 1005.9
20260904061541 73 0 0.0 0.0 0.00 0.00 0.00 91 1005.9
20260904061017 73 0 0.0 0.0 0.00 0.00 0.00 91 1005.8
20260904060518 73 0 0.0 0.0 0.00 0.00 0.00 90 1005.7
20260904060038 73 0 0.0 0.0 0.00 0.00 0.00 90 1005.8
20260904055518 74 0 0.0 1.0 0.00 0.00 0.00 90 1005.8
20260904055020 74 0 0.0 1.0 0.00 0.00 0.00 89 1005.9
20260904054542 74 0 0.0 1.0 0.00 0.00 0.00 88 1005.7
20260904054023 75 0 0.0 3.0 0.00 0.00 0.00 90 1005.6
20260904053518 75 0 1.0 3.0 0.00 0.00 0.00 89 1005.8
20260904053040 75 0 0.0 2.0 0.00 0.00 0.00 89 1005.7
20260904052517 75 0 0.0 2.0 0.00 0.00 0.00 89 1005.7
20260904052022 75 0 0.0 2.0 0.00 0.00 0.00 88 1005.7
20260904051541 75 0 0.0 2.0 0.00 0.00 0.00 88 1005.7
20260904051019 75 0 0.0 2.0 0.00 0.00 0.00 89 1005.6
20260904050519 75 0 0.0 2.0 0.00 0.00 0.00 89 1005.7
20260904050043 76 198 0.0 3.0 0.00 0.00 0.00 88 1005.7
20260904045519 76 0 1.0 3.0 0.00 0.00 0.00 88 1005.6